Starlink 30785

operational
NORAD ID: 58191 Int'l Des: 2023-167 Owner: SPXS Country: US Constellation: starlink
LEOCIRCULAR

关于 Starlink 30785

正在加载描述...

实时位置

正在加载3D地球...

即将过境

高度历史

Altitude vs Time

uPlot chart will show altitude changes over time

两行轨道根数

1 58191U 23167S 25348.12789132 -.00001505 00000-0 -96368-4 0 9997
2 58191 43.0031 250.9312 0000660 297.0792 62.9983 15.02536245118085
Epoch: Dec 14, 2025 • Age: 42 hours

当前状态

高度 561.0 km
速度 7.59 km/s
星下点 34.93°N, 27.96°W
发射日期 Oct 30, 2023
运行时间 2.1 years
类型 internet

技术详情

分类 Payload
质量 730.00 kg
干质量 700.00 kg
总质量 730.00 kg
长度 0.30 m
直径 4.10 m
跨度 29.00 m
形状 Box + pan
制造商 SPXS
平台类型 Starlink V2M
阶段状态 In Orbit
所有者/国家 SPXS/US

大型星座

Loading constellations...